, AK

(GMT )
Northway

Weather History for PAOR - May, 2013

Change the Weather History Date:

Sunday, May 12, 2013

  Actual Average Record
Temperature  
Mean Temperature 42 °F -  
Max Temperature 50 °F 56 °F 77 °F (2016)
Min Temperature 37 °F 31 °F 20 °F (1952)
Degree Days  
Heating Degree Days 22    
Moisture  
Dew Point 33 °F    
Average Humidity 70    
Maximum Humidity 89    
Minimum Humidity 54    
Precipitation  
Precipitation 0.02 in - - ()
Snow  
Snow 0.00 in - - ()
Snow Depth 6.00 in    
Sea Level Pressure  
Sea Level Pressure 29.52 in    
Wind  
Wind Speed 7 mph (WNW)    
Max Wind Speed 13 mph    
Max Gust Speed 16 mph    
Visibility 10 miles    
Events Rain    
Averages and records for this station are not official NWS values.
T = Trace of Precipitation, MM = Missing Value Source: NWS Daily Summary

Daily Weather History Graph

Daily Weather History Graph

Search for Another Location

Airport or City:

Trip Planner

Search our weather history database for the weather conditions in past years. The results will help you decide how hot, cold, wet, or windy it might be!

Date:

Astronomy

May. 12, 2013 Rise Set
Actual Time 4:32 AM AKDT 10:17 PM AKDT
Civil Twilight 3:13 AM AKDT 11:38 PM AKDT
Nautical Twilight Sun does not rise Sun does not rise
Astronomical Twilight Sun does not rise Sun does not rise
Moon 6:22 AM AKDT (5/12) 12:15 AM AKDT (5/12)
Length of Visible Light 20h 24m
Length of Day
17h 44m
Waxing Crescent, 7% of the Moon is Illuminated
May 12
Waxing Crescent
May 17
First Quarter
May 24
Full
May 31
Last Quarter
Jun 8
New

Hourly Weather History & Observations

Time (AKDT) Temp. Windchill Dew Point Humidity Pressure Visibility Wind Dir Wind Speed Gust Speed Precip Events Conditions
12:53 AM 44.1 °F 39.0 °F 30.0 °F 58% 29.57 in 10.0 mi NW 9.2 mph 16.1 mph N/A   Overcast
1:53 AM 43.0 °F 39.5 °F 28.9 °F 58% 29.57 in 10.0 mi NW 5.8 mph - 0.00 in Rain Light Rain
2:53 AM 42.1 °F 36.6 °F 30.0 °F 62% 29.57 in 10.0 mi NW 9.2 mph - 0.00 in Rain Light Rain
3:53 AM 39.9 °F 33.9 °F 32.0 °F 73% 29.57 in 10.0 mi NW 9.2 mph - 0.00 in Rain Light Rain
4:53 AM 37.9 °F 32.1 °F 33.1 °F 83% 29.57 in 10.0 mi NW 8.1 mph - 0.01 in Rain Light Rain
5:53 AM 39.0 °F 33.4 °F 32.0 °F 76% 29.56 in 10.0 mi NW 8.1 mph - 0.00 in Rain Light Rain
6:53 AM 37.9 °F 30.0 °F 33.1 °F 83% 29.56 in 10.0 mi NW 12.7 mph - 0.00 in Rain Light Rain
7:53 AM 37.9 °F 31.5 °F 34.0 °F 86% 29.56 in 10.0 mi WNW 9.2 mph - 0.01 in   Overcast
8:53 AM 39.0 °F 32.8 °F 34.0 °F 82% 29.56 in 10.0 mi NW 9.2 mph - N/A   Scattered Clouds
9:53 AM 41.0 °F 36.4 °F 34.0 °F 76% 29.56 in 10.0 mi Variable 6.9 mph - N/A   Overcast
10:53 AM 42.1 °F 38.4 °F 35.1 °F 76% 29.56 in 10.0 mi WNW 5.8 mph - N/A   Overcast
11:53 AM 44.1 °F 40.1 °F 35.1 °F 71% 29.55 in 10.0 mi West 6.9 mph - N/A   Overcast
12:53 PM 48.0 °F - 35.1 °F 61% 29.53 in 10.0 mi WNW 8.1 mph - N/A   Overcast
1:53 PM 46.9 °F - 35.1 °F 63% 29.52 in 10.0 mi Variable 5.8 mph - N/A   Overcast
2:53 PM 48.9 °F - 34.0 °F 56% 29.51 in 10.0 mi Variable 5.8 mph - N/A   Overcast
3:53 PM 48.9 °F - 33.1 °F 54% 29.49 in 10.0 mi West 4.6 mph - N/A   Overcast
4:53 PM 46.9 °F - 33.1 °F 59% 29.49 in 10.0 mi SW 5.8 mph - N/A   Overcast
5:53 PM 48.0 °F - 33.1 °F 56% 29.48 in 10.0 mi Calm Calm - N/A   Overcast
6:53 PM 46.9 °F - 34.0 °F 61% 29.47 in 10.0 mi Calm Calm - N/A   Overcast
7:53 PM 46.0 °F 44.8 °F 35.1 °F 66% 29.47 in 10.0 mi South 3.5 mph - N/A   Overcast
8:53 PM 45.0 °F - 35.1 °F 68% 29.47 in 10.0 mi Calm Calm - N/A   Overcast
9:53 PM 42.1 °F - 35.1 °F 76% 29.47 in 10.0 mi Calm Calm - N/A   Mostly Cloudy
10:53 PM 39.9 °F - 34.0 °F 79% 29.47 in 10.0 mi Calm Calm - N/A   Overcast
11:53 PM 37.9 °F - 35.1 °F 89% 29.46 in 10.0 mi Calm Calm - 0.00 in Rain Light Rain